This is the latest recevied weather packets stored in our database for station/object N8BAP. If no packets are shown the sender has not sent any weather packets the latest 10 day(s).
| Time | Temp. | Humidity | Pressure | Rain* | Wind** | Luminosity | Snow |
|---|---|---|---|---|---|---|---|
| 1778157353 | 8.89° C | 70% | 1020.2 hPa | 0 mm | - | 207 W/m² | - |
| 1778157050 | 8.89° C | 70% | 1020.2 hPa | 0 mm | - | 204 W/m² | - |
| 1778156745 | 8.33° C | 73% | 1020 hPa | 0 mm | - | 193 W/m² | - |
| 1778156441 | 8.33° C | 74% | 1020.3 hPa | 0 mm | - | 56 W/m² | - |
| 1778156137 | 7.78° C | 76% | 1020 hPa | 0 mm | - | 72 W/m² | - |
| 1778155833 | 7.78° C | 76% | 1020 hPa | 0 mm | - | 66 W/m² | - |
| 1778155529 | 7.78° C | 77% | 1019.9 hPa | 0 mm | - | 53 W/m² | - |
| 1778155227 | 7.78° C | 79% | 1020.3 hPa | 0 mm | - | 130 W/m² | - |
| 1778154923 | 7.78° C | 79% | 1020.3 hPa | 0 mm | - | 47 W/m² | - |
| 1778154619 | 7.22° C | 81% | 1020.2 hPa | 0 mm | - | 63 W/m² | - |
| 1778154315 | 7.22° C | 81% | 1020.2 hPa | 0 mm | - | 71 W/m² | - |
| 1778154012 | 7.22° C | 82% | 1020.3 hPa | 0 mm | - | 62 W/m² | - |
| 1778153709 | 6.67° C | 82% | 1020.2 hPa | 0 mm | - | 58 W/m² | - |
| 1778153407 | 6.67° C | 84% | 1020.1 hPa | 0 mm | - | 56 W/m² | - |
| 1778153104 | 6.11° C | 86% | 1020 hPa | 0 mm | - | 50 W/m² | - |
| 1778152801 | 6.11° C | 87% | 1019.9 hPa | 0 mm | - | 44 W/m² | - |
| 1778152498 | 5.56° C | 87% | 1019.7 hPa | 0 mm | - | 39 W/m² | - |
| 1778152194 | 5° C | 88% | 1019.8 hPa | 0 mm | - | 33 W/m² | - |
| 1778151890 | 5° C | 88% | 1020.1 hPa | 0 mm | - | 28 W/m² | - |
| 1778151587 | 5° C | 88% | 1019.7 hPa | 0 mm | - | 23 W/m² | - |
| 1778151284 | 5° C | 88% | 1019.5 hPa | 0 mm | - | 19 W/m² | - |
| 1778150981 | 5° C | 88% | 1019.6 hPa | 0 mm | - | 14 W/m² | - |
| 1778150678 | 4.44° C | 89% | 1019.4 hPa | 0 mm | - | 10 W/m² | - |
| 1778150373 | 4.44° C | 89% | 1019.7 hPa | 0 mm | - | 7 W/m² | - |
| 1778150070 | 4.44° C | 89% | 1019.5 hPa | 0 mm | - | 4 W/m² | - |
* Rain latest hour (hover to see other rain measurements)
** Current wind speed in m/s (hover to see current wind gust speed)